Showing default

COSMOS 2583, 62904

Orbit data source: Space-Track

COSMOS 2583, 62904 is a payload satellite owned by MO RF (CIS) in LEO that was launched on Wed, 05 Feb 2025 UTC via a SOYUZ-2-1V launch vehicle from the Plesetsk Missile And Space Complex (PKMTR). Payload-class satellites include a variety of spacecraft equipped with specific instruments for various scientific and technological missions. These include communications satellites like Starlink; space stations such as the ISS; scientific satellites like the Hubble; Earth observation satellites from companies like Planet Labs, Umbra, and HawkEye 360; GPS; miniature CubeSats for education and research; and military/defense satellites.

Loading next visibility...
Identifier
62904, 2025-026C
Orbit
LEO
Country
Flag of CISCIS
Related business
Manufacturer
VNIIEM
Mission
Operational Defense Imaging
Bus & Motor
EMKA, Unknown motor
Mass
~500 kg wet, 500 kg dry
Launch date (UTC)
2025-02-05 (1 year ago)
Launch vehicle
SOYUZ-2-1V
Launch site
Plesetsk Missile And Space Complex (PKMTR)
Object type
Payload
Rocket body
Debris
Shape & HBR
Cyl + 2 Pan, 14.5 m
Radar Cross Section
3.727 m², Medium (>0.1 m² and < 1m²)

Expand to show TLE details & history
Last TLE update: 21 hours ago

TLE from 21 hours ago
0 COSMOS 2583
1 62904U 25026C   26033.74147519  .00003494  00000-0  32044-3 0  9994
2 62904  81.9892 211.6178 0011780 149.1573 211.0341 14.94590568 54117
Epoch: 2026-02-02T17:47Z
TLE epoch observation values (Epoch: 2026-02-02T17:47:43.456Z)
Latitude
-0.00003°
Longitude
171.75432°
Altitude
593.713 km
Speed
7.559 km/s
True Right ascension
14h 06m 28s
True Declination
0° 00' 00"
Sunlit
Object was in daylight at epoch
Visualization orbit readout
Latitude
Unknown
Longitude
Unknown
Altitude
Unknown
Speed
Unknown
Apparent Right ascension
Unknown
Apparent Declination
Unknown
Sunlit
N/A
Visualization observer readout
Local Sidereal Time
17:04:26
Azimuth
Unknown
Elevation
Unknown
Doppler factor
Unknown
Orbital elements
Apogee altitude
588.868 km
Perigee altitude
572.473 km
Semi-major axis
6,958.807 km
Eccentricity
0.00118
Inclination
81.9892°
RAAN
211.6178°
Arg. of periapsis
149.1573°
True anomaly
210.96459°
Mean anomaly
211.0341°
Eccentric anomaly
210.99934°
Mean motion
3.73888 °/min
Orbital period
96.29 mins
BSTAR
0.00032044
Loading maneuver chart data...
Computing Atmospheric mass density...
Loading historical data...
Loading historical data...
Loading historical data...
Loading historical data...
Loading historical data...
Loading historical data...
Loading historical data...

Documentation

Showing up to 5 results
|